Location: *
(46.1333°S, 161.2167°W)
Time: 03:36:27
(UTC+00:00)

Cosmos 841 Rocket - Pass Details

Date: 15 July 2020
Orbit: 747 x 772 km, 74.0° (Epoch: 10 August)

Event Time Altitude Azimuth Distance (km) Brightness Sun altitude
Rises 15:58:25 0° 349° (N) 3,235 6.7 -24.2°
Reaches altitude 10° 16:00:47 10° 351° (N) 2,319 6.0 -23.8°
Maximum altitude 16:06:00 67° 72° (ENE) 850 3.9 -22.9°
Drops below altitude 10° 16:11:19 10° 153° (SSE) 2,354 6.2 -21.9°
Sets 16:13:44 0° 156° (SSE) 3,288 7.0 -21.5°
